| time (UTC) | temp F | wind direction | speed knots | gust knots | rain 1hr in | rain 24hr in | rain mn in | humidity % | barometer mb |
| 20260507105236 | 64 | 75 | 0.0 | 2.6 | 0.00 | 0.00 | 0.00 | 39 | 1014.8 |
| 20260507104216 | 62 | 0.0 | 0.0 | 0.00 | 0.00 | 0.00 | 41 | 1014.8 | |
| 20260507103216 | 64 | 0.0 | 0.0 | 0.00 | 0.00 | 0.00 | 37 | 1014.7 | |
| 20260507102216 | 66 | 35 | 0.9 | 2.6 | 0.00 | 0.00 | 0.00 | 38 | 1014.8 |
| 20260507101216 | 66 | 0.0 | 0.0 | 0.00 | 0.00 | 0.00 | 35 | 1014.7 | |
| 20260507100216 | 65 | 0.0 | 0.0 | 0.00 | 0.00 | 0.00 | 38 | 1014.7 | |
| 20260507095216 | 64 | 0.0 | 0.0 | 0.00 | 0.00 | 0.00 | 44 | 1014.6 | |
| 20260507094216 | 65 | 0.0 | 4.3 | 0.00 | 0.00 | 0.00 | 42 | 1014.6 | |
| 20260507093216 | 63 | 324 | 1.7 | 5.2 | 0.00 | 0.00 | 0.00 | 48 | 1014.6 |
| 20260507092216 | 62 | 316 | 0.9 | 2.6 | 0.00 | 0.00 | 0.00 | 49 | 1014.5 |
| 20260507091216 | 62 | 352 | 0.9 | 2.6 | 0.00 | 0.00 | 0.00 | 50 | 1014.5 |
| 20260507090216 | 63 | 338 | 1.7 | 4.3 | 0.00 | 0.00 | 0.00 | 48 | 1014.6 |
| 20260507085236 | 63 | 333 | 2.6 | 5.2 | 0.00 | 0.00 | 0.00 | 50 | 1014.5 |
| 20260507084216 | 63 | 334 | 2.6 | 5.2 | 0.00 | 0.00 | 0.00 | 49 | 1014.5 |
| 20260507083216 | 62 | 84 | 0.0 | 2.6 | 0.00 | 0.00 | 0.00 | 48 | 1014.4 |
| 20260507082216 | 60 | 0.0 | 0.9 | 0.00 | 0.00 | 0.00 | 57 | 1014.4 | |
| 20260507081216 | 59 | 0.0 | 0.9 | 0.00 | 0.00 | 0.00 | 58 | 1014.4 | |
| 20260507080216 | 58 | 0.0 | 0.0 | 0.00 | 0.00 | 0.00 | 59 | 1014.3 | |
| 20260507075216 | 56 | 268 | 0.9 | 1.7 | 0.00 | 0.00 | 0.00 | 63 | 1014.3 |
| 20260507074216 | 55 | 336 | 0.0 | 1.7 | 0.00 | 0.00 | 0.00 | 66 | 1014.2 |
| 20260507073216 | 54 | 328 | 1.7 | 3.5 | 0.00 | 0.00 | 0.00 | 67 | 1014.2 |
| 20260507072216 | 53 | 36 | 1.7 | 2.6 | 0.00 | 0.01 | 0.00 | 68 | 1014.1 |
| 20260507071216 | 52 | 359 | 0.0 | 0.9 | 0.00 | 0.01 | 0.00 | 70 | 1014.0 |
| 20260507070215 | 51 | 0.0 | 0.0 | 0.00 | 0.01 | 0.00 | 73 | 1014.0 | |
| 20260507065240 | 49 | 317 | 0.0 | 3.5 | 0.00 | 0.01 | 0.00 | 76 | 1014.0 |
| 20260507064217 | 49 | 321 | 0.9 | 2.6 | 0.00 | 0.02 | 0.00 | 78 | 1014.0 |
| 20260507063215 | 48 | 0.0 | 0.0 | 0.00 | 0.02 | 0.00 | 80 | 1014.0 | |
| 20260507062216 | 48 | 317 | 1.7 | 7.8 | 0.00 | 0.02 | 0.00 | 81 | 1013.9 |
| 20260507061216 | 47 | 0.0 | 0.0 | 0.00 | 0.02 | 0.00 | 84 | 1013.8 | |
| 20260507060216 | 46 | 0.0 | 0.0 | 0.00 | 0.03 | 0.00 | 86 | 1013.7 | |
| 20260507055239 | 46 | 0.0 | 0.0 | 0.00 | 0.03 | 0.00 | 86 | 1013.6 | |
| 20260507054240 | 45 | 0.0 | 0.0 | 0.00 | 0.03 | 0.00 | 87 | 1013.5 | |
| 20260507053238 | 45 | 0.0 | 0.0 | 0.00 | 0.03 | 0.00 | 87 | 1013.6 | |
| 20260507052216 | 44 | 0.0 | 0.0 | 0.00 | 0.03 | 0.00 | 88 | 1013.5 | |
| 20260507051216 | 44 | 0.0 | 0.0 | 0.00 | 0.03 | 0.00 | 87 | 1013.3 | |
| 20260507050216 | 44 | 0.0 | 0.0 | 0.00 | 0.03 | 0.00 | 88 | 1013.2 | |
| 20260507045215 | 44 | 0.0 | 0.0 | 0.00 | 0.03 | 0.00 | 88 | 1013.1 | |
| 20260507044216 | 45 | 0.0 | 0.0 | 0.00 | 0.03 | 0.00 | 88 | 1013.0 | |
| 20260507043216 | 45 | 0.0 | 0.0 | 0.00 | 0.03 | 0.00 | 88 | 1012.9 | |
| 20260507042216 | 45 | 0.0 | 0.0 | 0.00 | 0.04 | 0.00 | 87 | 1012.8 | |
| 20260507041215 | 45 | 0.0 | 0.0 | 0.00 | 0.04 | 0.00 | 87 | 1012.8 | |
| 20260507040215 | 45 | 0.0 | 0.0 | 0.00 | 0.06 | 0.00 | 87 | 1012.6 | |
| 20260507035236 | 46 | 0.0 | 0.0 | 0.00 | 0.07 | 0.00 | 87 | 1012.5 | |
| 20260507034215 | 46 | 0.0 | 0.0 | 0.00 | 0.07 | 0.00 | 87 | 1012.5 | |
| 20260507033216 | 46 | 0.0 | 0.0 | 0.00 | 0.08 | 0.00 | 87 | 1012.5 | |
| 20260507032216 | 46 | 0.0 | 0.0 | 0.00 | 0.08 | 0.00 | 87 | 1012.5 | |
| 20260507031235 | 46 | 0.0 | 0.0 | 0.00 | 0.08 | 0.00 | 87 | 1012.5 | |
| 20260507030215 | 47 | 0.0 | 0.0 | 0.00 | 0.08 | 0.00 | 87 | 1012.4 | |
| 20260507025215 | 47 | 0.0 | 0.0 | 0.00 | 0.08 | 0.00 | 87 | 1012.4 | |
| 20260507024215 | 47 | 0.0 | 0.0 | 0.00 | 0.08 | 0.00 | 87 | 1012.4 | |
| 20260507023215 | 47 | 0.0 | 0.0 | 0.00 | 0.09 | 0.00 | 87 | 1012.2 | |
| 20260507022215 | 47 | 0.0 | 0.0 | 0.00 | 0.09 | 0.00 | 87 | 1012.2 | |
| 20260507021215 | 47 | 0.0 | 0.0 | 0.00 | 0.09 | 0.00 | 87 | 1012.2 | |
| 20260507020215 | 47 | 0.0 | 0.0 | 0.00 | 0.09 | 0.00 | 87 | 1012.1 | |
| 20260507015215 | 47 | 0.0 | 0.0 | 0.00 | 0.09 | 0.00 | 87 | 1012.0 | |
| 20260507014215 | 47 | 0.0 | 0.0 | 0.00 | 0.09 | 0.00 | 87 | 1012.0 | |
| 20260507013215 | 47 | 0.0 | 0.0 | 0.00 | 0.09 | 0.00 | 87 | 1012.0 | |
| 20260507012215 | 47 | 0.0 | 0.0 | 0.00 | 0.09 | 0.00 | 87 | 1012.0 | |
| 20260507011215 | 47 | 0.0 | 0.0 | 0.00 | 0.10 | 0.00 | 87 | 1011.9 | |
| 20260507010255 | 47 | 0.0 | 0.0 | 0.00 | 0.10 | 0.00 | 87 | 1011.8 | |
| 20260507005215 | 47 | 0.0 | 0.0 | 0.00 | 0.10 | 0.00 | 87 | 1011.8 | |
| 20260507004215 | 47 | 0.0 | 0.0 | 0.00 | 0.10 | 0.00 | 86 | 1011.7 | |
| 20260507003215 | 47 | 0.0 | 0.0 | 0.00 | 0.10 | 0.00 | 86 | 1011.7 | |
| 20260507002215 | 47 | 0.0 | 0.0 | 0.00 | 0.10 | 0.00 | 86 | 1011.6 | |
| 20260507001215 | 47 | 0.0 | 0.0 | 0.00 | 0.11 | 0.00 | 86 | 1011.6 | |
| 20260507000215 | 47 | 0.0 | 0.0 | 0.00 | 0.11 | 0.00 | 86 | 1011.6 | |
| 20260506235215 | 47 | 0.0 | 0.0 | 0.00 | 0.11 | 0.00 | 86 | 1011.6 | |
| 20260506234215 | 47 | 0.0 | 0.0 | 0.00 | 0.11 | 0.00 | 86 | 1011.6 | |
| 20260506233215 | 47 | 0.0 | 0.0 | 0.00 | 0.11 | 0.00 | 86 | 1011.5 | |
| 20260506232235 | 47 | 0.0 | 0.0 | 0.00 | 0.11 | 0.00 | 86 | 1011.4 | |
| 20260506231215 | 47 | 0.0 | 0.0 | 0.00 | 0.11 | 0.00 | 86 | 1011.5 | |
| 20260506230235 | 47 | 0.0 | 0.0 | 0.00 | 0.11 | 0.00 | 86 | 1011.4 | |
| 20260506225215 | 47 | 0.0 | 0.0 | 0.00 | 0.12 | 0.00 | 86 | 1011.3 | |
| 20260506224215 | 47 | 0.0 | 0.0 | 0.00 | 0.12 | 0.00 | 86 | 1011.2 | |
| 20260506223255 | 47 | 0.0 | 0.0 | 0.00 | 0.12 | 0.00 | 85 | 1011.2 | |
| 20260506222215 | 47 | 0.0 | 0.0 | 0.00 | 0.12 | 0.00 | 85 | 1011.2 | |
| 20260506221215 | 47 | 0.0 | 0.0 | 0.00 | 0.13 | 0.00 | 85 | 1011.1 | |
| 20260506220216 | 47 | 0.0 | 0.0 | 0.00 | 0.13 | 0.00 | 85 | 1011.1 | |
| 20260506215216 | 47 | 0.0 | 0.0 | 0.00 | 0.13 | 0.13 | 85 | 1011.0 | |
| 20260506214215 | 47 | 0.0 | 0.0 | 0.00 | 0.13 | 0.13 | 85 | 1011.0 | |
| 20260506213213 | 48 | 0.0 | 0.0 | 0.00 | 0.13 | 0.13 | 85 | 1010.9 | |
| 20260506212233 | 48 | 0.0 | 0.0 | 0.00 | 0.13 | 0.13 | 85 | 1010.8 | |
| 20260506211215 | 48 | 0.0 | 0.0 | 0.00 | 0.13 | 0.13 | 85 | 1010.8 | |
| 20260506210215 | 48 | 0.0 | 0.0 | 0.00 | 0.13 | 0.13 | 84 | 1010.7 | |
| 20260506205215 | 48 | 0.0 | 0.0 | 0.00 | 0.13 | 0.13 | 83 | 1010.7 | |
| 20260506204213 | 48 | 0.0 | 0.0 | 0.00 | 0.13 | 0.13 | 83 | 1010.7 | |
| 20260506203215 | 48 | 0.0 | 0.0 | 0.00 | 0.13 | 0.13 | 83 | 1010.7 | |
| 20260506202215 | 48 | 0.0 | 0.0 | 0.00 | 0.13 | 0.13 | 83 | 1010.6 | |
| 20260506201213 | 48 | 0.0 | 0.0 | 0.00 | 0.13 | 0.13 | 83 | 1010.6 | |
| 20260506200213 | 48 | 0.0 | 0.0 | 0.00 | 0.13 | 0.13 | 83 | 1010.5 | |
| 20260506195213 | 48 | 0.0 | 0.0 | 0.00 | 0.13 | 0.13 | 83 | 1010.4 | |
| 20260506194213 | 49 | 0.0 | 0.0 | 0.00 | 0.13 | 0.13 | 82 | 1010.3 | |
| 20260506193215 | 49 | 0.0 | 0.0 | 0.00 | 0.13 | 0.13 | 82 | 1010.2 | |
| 20260506192215 | 49 | 0.0 | 0.0 | 0.00 | 0.13 | 0.13 | 82 | 1010.1 | |
| 20260506191235 | 49 | 0.0 | 0.0 | 0.00 | 0.13 | 0.13 | 81 | 1010.0 | |
| 20260506190217 | 49 | 0.0 | 0.0 | 0.00 | 0.13 | 0.13 | 81 | 1009.9 | |
| 20260506185217 | 49 | 0.0 | 0.0 | 0.00 | 0.13 | 0.13 | 80 | 1009.8 | |
| 20260506184218 | 49 | 0.0 | 0.0 | 0.00 | 0.13 | 0.13 | 80 | 1009.7 | |
| 20260506183217 | 49 | 0.0 | 0.0 | 0.00 | 0.13 | 0.13 | 79 | 1009.7 | |
| 20260506182217 | 49 | 0.0 | 0.0 | 0.00 | 0.13 | 0.13 | 79 | 1009.5 | |
| 20260506181217 | 50 | 0.0 | 0.0 | 0.00 | 0.13 | 0.13 | 79 | 1009.3 | |
| 20260506180217 | 50 | 0.0 | 0.0 | 0.00 | 0.13 | 0.13 | 79 | 1009.2 | |
| 20260506175217 | 50 | 0.0 | 0.0 | 0.00 | 0.13 | 0.13 | 79 | 1009.2 | |
| 20260506174237 | 50 | 88 | 0.0 | 0.9 | 0.00 | 0.13 | 0.13 | 78 | 1009.1 |
| 20260506173217 | 50 | 0.0 | 0.0 | 0.00 | 0.13 | 0.13 | 78 | 1009.0 | |
| 20260506172217 | 50 | 0.0 | 2.6 | 0.00 | 0.13 | 0.13 | 77 | 1008.9 | |
| 20260506171217 | 50 | 0.0 | 0.0 | 0.00 | 0.13 | 0.13 | 77 | 1008.8 | |
| 20260506170237 | 50 | 0.0 | 0.0 | 0.00 | 0.13 | 0.13 | 76 | 1008.7 | |
| 20260506165217 | 51 | 0.0 | 0.0 | 0.00 | 0.13 | 0.13 | 75 | 1008.6 | |
| 20260506164217 | 51 | 5 | 0.0 | 0.9 | 0.00 | 0.13 | 0.13 | 75 | 1008.6 |
| 20260506163216 | 51 | 0.0 | 0.0 | 0.00 | 0.13 | 0.13 | 74 | 1008.5 | |
| 20260506162217 | 51 | 0.0 | 0.9 | 0.00 | 0.13 | 0.13 | 73 | 1008.5 | |
| 20260506161217 | 52 | 0.0 | 0.0 | 0.00 | 0.13 | 0.13 | 72 | 1008.5 | |
| 20260506160217 | 52 | 0.0 | 0.0 | 0.00 | 0.13 | 0.13 | 72 | 1008.4 | |
| 20260506155237 | 52 | 0.0 | 0.9 | 0.00 | 0.13 | 0.13 | 69 | 1008.4 | |
| 20260506154216 | 53 | 316 | 0.0 | 2.6 | 0.00 | 0.13 | 0.13 | 68 | 1008.3 |
| 20260506153216 | 53 | 342 | 0.0 | 1.7 | 0.00 | 0.13 | 0.13 | 67 | 1008.3 |
| 20260506152217 | 53 | 319 | 3.5 | 7.0 | 0.00 | 0.13 | 0.13 | 67 | 1008.2 |
| 20260506151217 | 53 | 0.0 | 0.0 | 0.00 | 0.13 | 0.13 | 68 | 1008.2 | |
| 20260506150217 | 53 | 0.0 | 0.0 | 0.00 | 0.13 | 0.13 | 69 | 1008.2 | |
| 20260506145216 | 53 | 0.0 | 0.0 | 0.00 | 0.13 | 0.13 | 67 | 1008.2 | |
| 20260506144216 | 52 | 315 | 0.0 | 1.7 | 0.00 | 0.13 | 0.13 | 69 | 1008.2 |
| 20260506143237 | 52 | 0.0 | 3.5 | 0.00 | 0.13 | 0.13 | 70 | 1008.1 | |
| 20260506142216 | 52 | 0.0 | 0.0 | 0.00 | 0.13 | 0.13 | 72 | 1008.1 | |
| 20260506141217 | 52 | 337 | 0.9 | 2.6 | 0.00 | 0.13 | 0.13 | 71 | 1008.2 |
| 20260506140237 | 52 | 0.0 | 0.0 | 0.00 | 0.13 | 0.13 | 72 | 1008.1 | |
| 20260506135236 | 52 | 0.0 | 0.9 | 0.00 | 0.13 | 0.13 | 72 | 1008.1 | |
| 20260506134216 | 52 | 333 | 0.9 | 6.1 | 0.00 | 0.13 | 0.13 | 73 | 1008.1 |
| 20260506133216 | 52 | 0.0 | 0.0 | 0.00 | 0.13 | 0.13 | 75 | 1008.1 | |
| 20260506132216 | 52 | 323 | 0.0 | 2.6 | 0.00 | 0.13 | 0.13 | 76 | 1008.1 |
| 20260506131216 | 52 | 0.0 | 0.0 | 0.00 | 0.13 | 0.13 | 78 | 1008.0 | |
| 20260506130216 | 52 | 0.0 | 0.0 | 0.00 | 0.13 | 0.13 | 77 | 1008.0 | |
| 20260506125216 | 52 | 0.0 | 0.0 | 0.00 | 0.13 | 0.13 | 76 | 1007.9 | |
| 20260506124236 | 53 | 0.0 | 0.0 | 0.00 | 0.13 | 0.13 | 76 | 1007.9 | |
| 20260506123216 | 53 | 0.0 | 0.0 | 0.00 | 0.13 | 0.13 | 76 | 1007.8 | |
| 20260506122216 | 52 | 326 | 0.0 | 3.5 | 0.00 | 0.13 | 0.13 | 78 | 1007.7 |
| 20260506121216 | 52 | 0.0 | 0.0 | 0.00 | 0.13 | 0.13 | 79 | 1007.7 | |
| 20260506120236 | 51 | 0.0 | 0.9 | 0.00 | 0.13 | 0.13 | 81 | 1007.7 | |
| 20260506115216 | 51 | 0.0 | 0.0 | 0.00 | 0.14 | 0.13 | 82 | 1007.6 | |
| 20260506114216 | 50 | 0.0 | 0.0 | 0.00 | 0.14 | 0.13 | 83 | 1007.7 | |
| 20260506113216 | 50 | 0.0 | 1.7 | 0.00 | 0.14 | 0.13 | 82 | 1007.6 | |
| 20260506112216 | 51 | 10 | 0.0 | 6.1 | 0.00 | 0.14 | 0.13 | 83 | 1007.5 |
| 20260506111236 | 51 | 326 | 0.0 | 3.5 | 0.00 | 0.14 | 0.13 | 85 | 1007.5 |
| 20260506110236 | 50 | 0.0 | 0.0 | 0.00 | 0.14 | 0.13 | 85 | 1007.5 |